Home > Weather > Charleston > Past weeks

Flag for U.S.A. Weather for the Past 2 Weeks in Charleston, West Virginia, U.S.A.

Now
13 °F

Clear.


Feels Like: 3 °F
Forecast: 6 / 29 °F
Wind: 7 mph from North

Location: Yeager Airport

Current Time: Feb 13, 2016 at 9:02:05 PM

Latest Report: Feb 13, 2016 at 7:54 PM


Visibility: 10 mi

Pressure: 30.53 "Hg

Humidity: 46%

Dew point: -4 °F

Location of CharlestonLocation

Historic Weather in Charleston — Graph

°F

Charleston Temperature Yesterday

Maximum temperature yesterday: 30 °F (at 1:54 PM)
Minimum temperature yesterday: 11 °F (at 3:54 AM)
Average temperature yesterday: 22 °F

High & Low Weather Summary for the Past Weeks

 TemperatureHumidityPressure
High67 °F (Feb 3, 3:54 PM)97% (Feb 2, 4:54 AM)30.52 "Hg (Feb 2, 4:54 AM)
Low11 °F (Feb 12, 3:54 AM)23% (Jan 30, 1:54 PM)29.59 "Hg (Feb 8, 2:54 PM)
Average36 °F64%30.05 "Hg
* Reported Jan 29 6:54 PM — Feb 13 6:54 PM, Charleston, Weather by CustomWeather, © 2016

Note: Actual official high and low records may vary slightly from our data, if they occured in-between our weather recording intervals... More about our weather records

Advertising

Charleston Weather History for the Previous 24 Hours

 ConditionsComfort  
Time TempWeatherWind HumidityBarometerVisibility
6:54 PM
Sat, Feb 13
15 °FPassing clouds.8 mph40%30.52 "Hg10 mi
5:54 PM16 °FPassing clouds.12 mph38%30.50 "Hg10 mi
4:54 PM19 °FPassing clouds.13 mph36%30.48 "Hg10 mi
3:54 PM18 °FScattered clouds.12 mph37%30.47 "Hg10 mi
2:54 PM19 °FScattered clouds.20 mph36%30.47 "Hg10 mi
1:54 PM19 °FScattered clouds.13 mph36%30.47 "Hg10 mi
12:54 PM18 °FPartly sunny.17 mph37%30.48 "Hg10 mi
11:54 AM16 °FBroken clouds.13 mph40%30.50 "Hg9 mi
10:54 AM16 °FLight snow. Partly sunny.14 mph45%30.50 "Hg8 mi
9:56 AM13 °FLight snow. Partly sunny.15 mph67%30.44 "Hg2 mi
8:54 AM14 °FBroken clouds.14 mph58%30.46 "Hg9 mi
7:54 AM14 °FLight snow. Partly sunny.15 mph64%30.43 "Hg6 mi
6:54 AM14 °FPartly cloudy.8 mph67%30.40 "Hg8 mi
5:54 AM15 °FPassing clouds.13 mph58%30.37 "Hg10 mi
4:54 AM16 °FPassing clouds.13 mph56%30.34 "Hg10 mi
3:54 AM17 °FMostly cloudy.12 mph51%30.32 "Hg10 mi
2:54 AM18 °FPartly cloudy.13 mph49%30.28 "Hg10 mi
1:54 AM19 °FOvercast.12 mph57%30.27 "Hg10 mi
12:54 AM21 °FLight snow. Overcast.21 mph50%30.24 "Hg9 mi
11:54 PM
Fri, Feb 12
21 °FLight snow. Mostly cloudy.16 mph78%30.20 "Hg1 mi
10:54 PM26 °FLight snow. Partly cloudy.20 mph55%30.16 "Hg10 mi
9:54 PM27 °FPartly cloudy.9 mph69%30.14 "Hg10 mi
Weather by CustomWeather, © 2016

See weather overviewHow to use our weather pages